MPEC 2000-V06: 2000 UO30

The following Minor Planet Electronic Circular may be linked-to from your own Web pages, but must not otherwise be redistributed electronically.


Read MPEC 2000-V05 Read MPEC 2000-V07


M.P.E.C. 2000-V06                                Issued 2000 Nov. 2, 15:22 UT

     The Minor Planet Electronic Circulars contain information on unusual
         minor planets and routine data on comets.  They are published
   on behalf of Commission 20 of the International Astronomical Union by the
          Minor Planet Center, Smithsonian Astrophysical Observatory,
                          Cambridge, MA 02138, U.S.A.

             Prepared using the Tamkin Foundation Computer Network

                              MPC@CFA.HARVARD.EDU
          URL http://cfa-www.harvard.edu/iau/mpc.html  ISSN 1523-6714

                                   2000 UO30

Observations:
     K00U30O* C2000 10 30.31659 03 05 21.46 +05 13 21.1          18.1        704
     K00U30O  C2000 10 30.33089 03 05 25.18 +05 17 07.9          18.9        704
     K00U30O  C2000 10 30.34486 03 05 28.86 +05 20 49.2          18.4        704
     K00U30O  C2000 10 30.35914 03 05 32.71 +05 24 36.6          18.7        704
     K00U30O  C2000 10 30.37455 03 05 36.88 +05 28 41.1          18.9        704
     K00U30O  C2000 10 31.27733 03 10 54.77 +09 44 32.3          18.5        704
     K00U30O  C2000 10 31.28535 03 10 57.26 +09 46 57.0          18.9        704
     K00U30O  C2000 10 31.29125 03 10 59.14 +09 48 43.9          19.0        704
     K00U30O  C2000 10 31.29929 03 11 01.60 +09 51 09.7          19.2        704
     K00U30O  C2000 10 31.30613 03 11 03.80 +09 53 14.2          18.9        704
     K00U30O  C2000 10 31.31415 03 11 06.28 +09 55 39.8          18.7        704
     K00U30O  C2000 10 31.32002 03 11 08.10 +09 57 26.7          19.2        704
     K00U30O  C2000 10 31.32805 03 11 10.59 +09 59 52.0          19.1        704
     K00U30O  C2000 10 31.33393 03 11 12.42 +10 01 40.1          18.7        704
     K00U30O  C2000 10 31.34203 03 11 15.02 +10 04 06.9          18.7        704
     K00U30O  C2000 11 01.20105 03 17 10.06 +14 40 20.1          18.5 R      853
     K00U30O  C2000 11 01.20190 03 17 10.35 +14 40 37.5          18.3 R      853
     K00U30O  C2000 11 01.20270 03 17 10.63 +14 40 53.8          18.4 R      853
     K00U30O  C2000 11 01.20461 03 17 11.40 +14 41 32.5          17.8 R      853
     K00U30O  C2000 11 01.27183 03 17 36.16 +15 04 33.8          18.7        704
     K00U30O  C2000 11 01.27879 03 17 38.78 +15 06 57.6          18.5        704
     K00U30O  C2000 11 01.28579 03 17 41.36 +15 09 22.5          18.8        704
     K00U30O  C2000 11 01.28946 03 17 42.76 +15 10 38.0          18.7        704
     K00U30O  C2000 11 01.29269 03 17 43.94 +15 11 44.8          18.9        704
     K00U30O  C2000 11 01.29968 03 17 46.56 +15 14 08.9          18.4        704
     K00U30O  C2000 11 01.30435 03 17 48.37 +15 15 45.9          18.3        704
     K00U30O  C2000 11 01.30656 03 17 49.14 +15 16 31.1          18.8        704
     K00U30O  C2000 11 01.31356 03 17 51.76 +15 18 55.4          18.9        704
     K00U30O  C2000 11 01.31864 03 17 53.67 +15 20 41.3          18.9        704
     K00U30O  C2000 11 01.32044 03 17 54.36 +15 21 17.2          18.7        704
     K00U30O  C2000 11 01.32742 03 17 56.95 +15 23 42.2          18.6        704
     K00U30O  C2000 11 01.33294 03 17 59.09 +15 25 36.4          18.7        704
     K00U30O  C2000 11 01.33430 03 17 59.60 +15 26 03.8          18.9        704
     K00U30O  C2000 11 01.34755 03 18 04.53 +15 30 39.2          19.0        704
     K00U30O  C2000 11 01.92082 03 22 36.85 +18 54 44.6                      118
     K00U30O  C2000 11 01.92168 03 22 37.22 +18 55 03.1                      118
     K00U30O  C2000 11 01.92311 03 22 37.90 +18 55 35.8                      118
     K00U30O  C2000 11 01.98954 03 23 07.45 +19 20 11.9          17.5 R      046
     K00U30O  C2000 11 01.99022 03 23 07.65 +19 20 26.4                      046
     K00U30O  C2000 11 01.99147 03 23 08.29 +19 20 53.4                      046
     K00U30O  C2000 11 01.99233 03 23 08.72 +19 21 14.6                      046
     K00U30O  C2000 11 01.99339 03 23 09.20 +19 21 38.8          17.7 R      046

Observer details:
046 Klet.  Observers M. Tichy, M. Kocer.  0.57-m f/5.2 reflector + CCD.
118 Modra.  Observers L. Kornos, J. Toth.  0.6-m f/5.5 reflector + CCD.
704 Lincoln Laboratory ETS, New Mexico.  Observers M. Blythe, F. Shelly,
    M. Bezpalko, M. Elowitz, R. Huber, L. Manguso.  Measurers J. Stuart,
    R. Sayer, J. B. Evans, H. Viggh.  1.0-m f/2.15 reflector + CCD.
853 Biosphere 2 Observatory.  Observer G. J. Garradd.  0.5-m f/8.1 reflector
    + CCD.

Orbital elements:
2000 UO30
Epoch 2000 Oct. 23.0 TT = JDT 2451840.5                 Spahr
M 345.64712              (2000.0)            P               Q
n   0.40262675     Peri.   30.05081     +0.34412754     -0.92813770
a   1.8163560      Node    40.30145     +0.81182617     +0.21819718
e   0.4528110      Incl.   12.67323     +0.47171443     +0.30157984
P   2.45           H   24.3           G   0.15
From 42 observations 2000 Oct. 30-Nov. 1.

Ephemeris:
2000 UO30                a,e,i = 1.82, 0.45, 13                  q = 0.9939
Date    TT    R. A. (2000) Decl.     Delta      r     Elong.  Phase     V
2000 10 23    02 40.05   -14 37.3    0.090    1.074   151.3    26.4    20.4
2000 10 28    02 54.83   -03 24.3    0.064    1.054   160.1    18.7    19.4
2000 11 02    03 23.21   +19 25.4    0.046    1.037   166.4    13.0    18.4
2000 11 07    04 36.71   +54 30.0    0.042    1.022   136.6    41.8    19.1
2000 11 12    08 26.6    +73 31.7    0.056    1.010   110.0    67.0    20.4
2000 11 17    11 37.72   +69 16.0    0.078    1.002    97.3    78.2    21.5
2000 11 22    12 36.63   +63 29.8    0.102    0.996    91.8    82.3    22.2

Timothy B. Spahr             (C) Copyright 2000 MPC           M.P.E.C. 2000-V06

Read MPEC 2000-V05 Read MPEC 2000-V07


Our Web policy. Index to the CBAT/MPC/ICQ pages.

MPC